Simultaneous Nadir Overpasses (SNOs) Predictions

Prediction of SNOs between GOES-14 and NPP Satellite Orbit:

Table of predicted SNOs for the next 14.0 days since TLE Epoch: 9/2/2023
Index Date Time (GOES-14) GOES-14 Lat,Lon NPP Lat,Lon Distance(km) Time Diff (sec)
1 09/02/2023 08:59:13 0.42,-108.61 1.35,-112.74 470.10 80
2 09/03/2023 08:37:47 0.42,-108.61 0.34,-108.20 46.50 80
3 09/05/2023 20:40:57 -0.41,-108.53 -0.52,-108.97 50.94 80
4 09/06/2023 20:24:52 -0.42,-108.53 0.49,-104.44 465.81 80
5 09/08/2023 08:43:59 0.40,-108.62 0.64,-109.72 125.41 80
6 09/09/2023 08:25:14 0.40,-108.62 -0.37,-105.19 390.99 80
7 09/10/2023 20:47:09 -0.38,-108.52 -0.80,-110.49 223.81 80
8 09/11/2023 20:31:03 -0.39,-108.53 0.21,-105.96 293.08 80
9 09/13/2023 08:50:10 0.37,-108.62 0.97,-111.23 297.34 80
10 09/14/2023 08:34:04 0.38,-108.62 -0.05,-106.70 219.50 80
11 09/15/2023 20:53:20 -0.36,-108.53 -1.11,-112.00 395.31 80
